CAPE
3 4 2 4 0 0 0 0 0 0 0 0 0 0 0 0 0 0 0 0 0 0 0 0 0 0 0 0 0 0 0 0 0 0 0 0 0 0 0 0 0 0 0 0 112
2 4 5 0 1 0 0 0 0 0 0 0 0 0 0 0 0 0 0 0 0 0 0 0 0 0 0 0 0 0 0 0 0 0 0 0 0 0 0 0 0 0 0 0 220
3 3 3 2 0 0 0 0 0 0 0 0 0 0 0 0 0 0 0 0 0 0 0 0 0 0 0 0 0 0 0 0 0 0 0 0 0 0 0 0 0 0 0 0 97
2 1 4 0 0 0 0 0 0 0 0 0 0 0 0 0 0 0 0 0 0 0 0 0 0 0 0 0 0 0 0 0 0 0 0 0 0 0 0 0 0 0 0 0 0
3 2 1 0 0 0 0 0 0 0 0 0 0 0 0 0 0 0 0 0 0 0 0 0 0 0 0 0 0 0 0 0 0 0 0 0 0 0 0 0 0 0 0 0 0
4 6 1 0 0 0 0 0 0 0 0 0 0 0 0 0 0 0 0 0 0 0 0 0 0 0 0 0 0 0 0 0 0 0 0 0 0 0 0 0 0 0 0 0 0
3 0 0 0 0 0 0 0 0 0 0 0 0 0 0 0 0 0 0 0 0 0 0 0 0 0 0 0 0 0 0 0 0 0 0 0 0 0 0 0 0 0 0 0 0
1 0 0 0 0 0 0 0 0 0 0 0 0 0 0 0 0 0 0 0 0 0 0 0 0 0 0 0 0 0 0 0 0 0 0 0 0 0 0 0 0 0 0 0 0
0 0 0 0 0 0 0 0 0 0 0 0 0 0 0 0 0 0 0 0 0 0 0 0 0 0 0 0 0 0 0 0 0 0 0 0 0 0 0 0 0 0 0 0 0
0 0 0 0 0 0 0 0 0 0 0 0 0 0 0 0 0 0 0 0 0 0 0 0 0 0 0 0 0 0 0 0 0 0 0 0 0 0 0 0 0 0 0 0 0
0 0 0 0 0 0 0 0 0 0 0 0 0 0 0 0 0 0 0 0 0 0 0 0 0 0 0 0 0 0 0 0 0 0 0 0 0 0 0 0 0 0 0 0 0
18 0 0 0 0 0 0 0 0 0 0 0 0 0 0 0 0 0 0 0 0 0 0 0 0 0 0 0 0 0 0 0 0 0 0 0 0 0 0 0 0 0 0 0 0
21 13 0 0 0 7 0 0 0 0 0 0 0 0 0 0 0 0 0 0 0 0 0 0 0 0 0 0 0 0 0 0 0 0 0 0 0 0 0 0 0 0 0 0 0
24 31 13 2 13 1 0 0 17 2 0 0 0 0 0 0 0 0 0 0 0 0 0 0 0 0 0 0 0 0 0 0 0 0 0 0 0 0 0 0 0 0 0 0 0
18 47 27 10 0 0 0 8 84 34 0 0 0 0 0 0 0 0 0 0 0 0 0 0 0 0 0 0 0 0 0 0 0 0 0 0 0 0 0 0 0 0 0 0 0
2 28 55 33 25 0 65 119 68 0 0 0 0 0 0 0 0 0 0 0 0 0 0 0 0 0 0 0 0 0 0 0 0 0 0 0 0 0 0 0 0 0 0 0 0
0 1 12 8 4 71 137 62 0 0 0 0 0 0 0 0 0 0 0 0 0 0 0 0 0 0 0 0 0 0 0 0 0 0 0 0 0 0 0 0 0 0 0 0 0
1 0 1 0 0 102 50 7 1 0 0 0 0 0 0 0 0 0 0 0 0 0 0 0 0 0 0 0 0 0 0 0 0 0 0 0 0 0 0 0 0 0 0 0 0
0 0 0 0 1 63 25 0 0 1 0 0 0 0 0 0 0 0 0 0 0 0 0 0 0 0 0 0 0 0 0 0 0 0 0 0 0 0 0 0 0 0 0 0 0
0 0 0 0 2 16 7 0 0 0 0 0 0 0 0 0 0 0 0 0 0 0 0 0 0 0 0 0 0 0 0 0 0 0 0 0 0 0 0 0 0 0 0 0 0
0 0 0 4 16 0 0 0 0 0 0 0 0 0 0 0 0 0 0 0 0 0 0 0 0 0 0 0 0 0 0 0 0 0 0 0 0 0 0 0 0 0 0 0 0
0 0 0 29 0 3 0 0 1 1 1 1 0 0 0 0 0 0 0 0 0 0 0 0 0 0 0 0 0 0 0 0 0 0 0 0 0 0 0 0 0 0 0 0 0
0 0 0 0 0 0 1 0 4 2 4 2 3 1 1 0 0 0 0 0 0 0 0 0 0 0 0 0 0 0 0 0 0 0 0 0 0 0 0 0 0 0 0 0 0
0 0 0 0 0 0 0 0 0 12 8 0 1 1 2 0 1 0 3 0 0 0 0 0 0 0 0 0 0 0 0 0 0 0 0 0 0 0 0 0 0 0 0 0 0
0 0 0 1 0 0 2 0 0 0 11 2 3 0 0 0 0 0 0 1 0 0 0 0 0 0 0 0 0 0 0 0 0 0 0 0 0 0 0 0 0 0 0 0 0
0 0 0 0 0 1 0 0 0 0 0 2 0 0 1 0 0 0 0 2 1 0 0 0 0 0 0 0 0 0 0 0 0 0 0 0 0 0 0 0 0 0 0 0 0
1 0 0 0 0 4 0 0 0 0 0 0 1 8 0 0 0 0 1 0 0 1 2 0 0 0 0 0 0 0 0 0 0 0 0 0 0 0 0 0 0 0 0 0 0
CIN
-1 -0 -1 -0 -0 -0 -0 -0 -0 -0 -0 -0 -0 -0 -0 -0 -0 -0 -0 -0 -0 -0 -0 -0 -0 -0 -0 -0 -0 -0 -0 -0 -0 -0 -0 -0 -0 -0 -0 -0 -0 -0 -0 -0 -332
-1 -0 -0 -0 -0 -0 -0 -0 -0 -0 -0 -0 -0 -0 -0 -0 -0 -0 -0 -0 -0 -0 -0 -0 -0 -0 -0 -0 -0 -0 -0 -0 -0 -0 -0 -0 -0 -0 -0 -0 -0 -0 -0 -0 -362
-1 -0 -0 -0 -0 -0 -0 -0 -0 -0 -0 -0 -0 -0 -0 -0 -0 -0 -0 -0 -0 -0 -0 -0 -0 -0 -0 -0 -0 -0 -0 -0 -0 -0 -0 -0 -0 -0 -0 -0 -0 -0 -0 -0 -435
-0 -0 -0 -0 -0 -0 -0 -0 -0 -0 -0 -0 -0 -0 -0 -0 -0 -0 -0 -0 -0 -0 -0 -0 -0 -0 -0 -0 -0 -0 -0 -0 -0 -0 -0 -0 -0 -0 -0 -0 -0 -0 -0 -0 -0
-0 -0 -1 -0 -0 -0 -0 -0 -0 -0 -0 -0 -0 -0 -0 -0 -0 -0 -0 -0 -0 -0 -0 -0 -0 -0 -0 -0 -0 -0 -0 -0 -0 -0 -0 -0 -0 -0 -0 -0 -0 -0 -0 -0 -0
-2 -1 -0 -0 -0 -0 -0 -0 -0 -0 -0 -0 -0 -0 -0 -0 -0 -0 -0 -0 -0 -0 -0 -0 -0 -0 -0 -0 -0 -0 -0 -0 -0 -0 -0 -0 -0 -0 -0 -0 -0 -0 -0 -0 -0
-3 -0 -0 -0 -0 -0 -0 -0 -0 -0 -0 -0 -0 -0 -0 -0 -0 -0 -0 -0 -0 -0 -0 -0 -0 -0 -0 -0 -0 -0 -0 -0 -0 -0 -0 -0 -0 -0 -0 -0 -0 -0 -0 -0 -0
-2 -0 -0 -0 -0 -0 -0 -0 -0 -0 -0 -0 -0 -0 -0 -0 -0 -0 -0 -0 -0 -0 -0 -0 -0 -0 -0 -0 -0 -0 -0 -0 -0 -0 -0 -0 -0 -0 -0 -0 -0 -0 -0 -0 -0
-0 -0 -0 -0 -0 -0 -0 -0 -0 -0 -0 -0 -0 -0 -0 -0 -0 -0 -0 -0 -0 -0 -0 -0 -0 -0 -0 -0 -0 -0 -0 -0 -0 -0 -0 -0 -0 -0 -0 -0 -0 -0 -0 -0 -0
-0 -0 -0 -0 -0 -0 -0 -0 -0 -0 -0 -0 -0 -0 -0 -0 -0 -0 -0 -0 -0 -0 -0 -0 -0 -0 -0 -0 -0 -0 -0 -0 -0 -0 -0 -0 -0 -0 -0 -0 -0 -0 -0 -0 -0
-0 -0 -0 -0 -0 -0 -0 -0 -0 -0 -0 -0 -0 -0 -0 -0 -0 -0 -0 -0 -0 -0 -0 -0 -0 -0 -0 -0 -0 -0 -0 -0 -0 -0 -0 -0 -0 -0 -0 -0 -0 -0 -0 -0 -0
-28 -0 -0 -0 -0 -0 -0 -0 -0 -0 -0 -0 -0 -0 -0 -0 -0 -0 -0 -0 -0 -0 -0 -0 -0 -0 -0 -0 -0 -0 -0 -0 -0 -0 -0 -0 -0 -0 -0 -0 -0 -0 -0 -0 -0
-25 -28 -0 -0 -0 -0 -0 -0 -0 -0 -0 -0 -0 -0 -0 -0 -0 -0 -0 -0 -0 -0 -0 -0 -0 -0 -0 -0 -0 -0 -0 -0 -0 -0 -0 -0 -0 -0 -0 -0 -0 -0 -0 -0 -0
-17 -35 -49 -70 -0 -0 -0 -0 -128 -128 -0 -0 -0 -0 -0 -0 -0 -0 -0 -0 -0 -0 -0 -0 -0 -0 -0 -0 -0 -0 -0 -0 -0 -0 -0 -0 -0 -0 -0 -0 -0 -0 -0 -0 -0
-11 -34 -44 -4 -0 -0 -0 -104 -97 -42 -0 -0 -0 -0 -0 -0 -0 -0 -0 -0 -0 -0 -0 -0 -0 -0 -0 -0 -0 -0 -0 -0 -0 -0 -0 -0 -0 -0 -0 -0 -0 -0 -0 -0 -0
-0 -0 -0 -1 -5 -16 -86 -69 -24 -0 -0 -0 -0 -0 -0 -0 -0 -0 -0 -0 -0 -0 -0 -0 -0 -0 -0 -0 -0 -0 -0 -0 -0 -0 -0 -0 -0 -0 -0 -0 -0 -0 -0 -0 -0
-0 -7 -26 -2 -0 -25 -50 -14 -3 -0 -0 -0 -0 -0 -0 -0 -0 -0 -0 -0 -0 -0 -0 -0 -0 -0 -0 -0 -0 -0 -0 -0 -0 -0 -0 -0 -0 -0 -0 -0 -0 -0 -0 -0 -0
-0 -0 -0 -0 -0 -35 -36 -5 -5 -0 -0 -0 -0 -0 -0 -0 -0 -0 -0 -0 -0 -0 -0 -0 -0 -0 -0 -0 -0 -0 -0 -0 -0 -0 -0 -0 -0 -0 -0 -0 -0 -0 -0 -0 -0
-0 -0 -0 -0 -0 -16 -2 -0 -0 -0 -0 -0 -0 -0 -0 -0 -0 -0 -0 -0 -0 -0 -0 -0 -0 -0 -0 -0 -0 -0 -0 -0 -0 -0 -0 -0 -0 -0 -0 -0 -0 -0 -0 -0 -0
-0 -0 -0 -0 -0 -3 -0 -0 -0 -0 -0 -0 -0 -0 -0 -0 -0 -0 -0 -0 -0 -0 -0 -0 -0 -0 -0 -0 -0 -0 -0 -0 -0 -0 -0 -0 -0 -0 -0 -0 -0 -0 -0 -0 -0
-0 -0 -0 -25 -2 -0 -0 -0 -0 -0 -0 -0 -0 -0 -0 -0 -0 -0 -0 -0 -0 -0 -0 -0 -0 -0 -0 -0 -0 -0 -0 -0 -0 -0 -0 -0 -0 -0 -0 -0 -0 -0 -0 -0 -0
-0 -0 -0 -1 -0 -0 -0 -0 -0 -0 -0 -0 -0 -0 -0 -0 -0 -0 -0 -0 -0 -0 -0 -0 -0 -0 -0 -0 -0 -0 -0 -0 -0 -0 -0 -0 -0 -0 -0 -0 -0 -0 -0 -0 -0
-0 -0 -0 -0 -0 -0 -0 -0 -0 -0 -0 -0 -0 -0 -0 -0 -0 -0 -0 -0 -0 -0 -0 -0 -0 -0 -0 -0 -0 -0 -0 -0 -0 -0 -0 -0 -0 -0 -0 -0 -0 -0 -0 -0 -0
-0 -0 -0 -0 -0 -0 -0 -0 -0 -5 -2 -0 -0 -0 -0 -0 -0 -0 -10 -0 -0 -0 -0 -0 -0 -0 -0 -0 -0 -0 -0 -0 -0 -0 -0 -0 -0 -0 -0 -0 -0 -0 -0 -0 -0
-0 -0 -0 -0 -0 -0 -1 -0 -0 -0 -6 -3 -0 -0 -0 -0 -0 -0 -0 -0 -0 -0 -0 -0 -0 -0 -0 -0 -0 -0 -0 -0 -0 -0 -0 -0 -0 -0 -0 -0 -0 -0 -0 -0 -0
-0 -0 -0 -0 -0 -7 -0 -0 -0 -0 -0 -2 -0 -0 -0 -0 -0 -0 -0 -0 -0 -0 -0 -0 -0 -0 -0 -0 -0 -0 -0 -0 -0 -0 -0 -0 -0 -0 -0 -0 -0 -0 -0 -0 -0
-10 -0 -0 -0 -0 -0 -0 -0 -0 -0 -0 -0 -2 -5 -0 -0 -0 -0 -4 -0 -0 -0 -0 -0 -0 -0 -0 -0 -0 -0 -0 -0 -0 -0 -0 -0 -0 -0 -0 -0 -0 -0 -0 -0 -0
Wind_Speed
22 23 23 22 21 21 21 21 19 19 19 19 20 18 20 20 20 19 22 21 19 18 19 17 16 17 16 17 18 15 14 12 12 12 7 10 10 11 11 12 11 11 13 13 21
24 22 25 24 24 24 23 21 22 20 20 20 20 20 18 19 19 23 20 18 17 18 18 17 16 15 17 18 18 16 14 13 14 12 6 7 10 10 10 10 10 10 11 13 19
23 22 24 24 25 25 24 23 22 22 21 21 20 20 20 18 19 21 18 17 18 18 18 18 16 16 17 17 18 17 17 14 13 12 9 9 10 10 9 8 8 10 11 14 16
22 23 22 24 24 25 26 25 23 23 22 22 21 20 20 17 20 17 17 18 16 18 18 19 18 17 17 18 18 16 16 17 14 14 13 11 11 9 6 7 12 10 12 14 15
21 22 22 22 23 25 25 25 25 23 23 22 21 20 19 21 22 16 16 17 16 17 18 19 19 18 19 18 17 18 16 16 15 16 14 15 13 11 7 5 14 8 10 12 13
18 20 20 22 21 24 25 26 26 24 23 22 22 20 21 26 17 14 13 16 17 17 19 18 20 19 18 19 19 17 17 17 17 17 17 17 16 15 14 3 4 5 9 11 12
18 19 20 19 22 22 23 25 25 25 24 23 22 21 24 26 19 16 14 16 17 18 18 18 17 20 17 18 17 16 19 21 20 18 17 17 21 14 13 16 12 4 1 10 12
16 17 21 19 20 23 22 23 24 25 24 23 22 22 28 21 19 16 17 15 15 17 17 15 15 17 19 15 18 21 20 23 20 17 17 15 22 16 16 13 11 14 6 2 12
18 17 18 17 18 23 22 21 23 23 24 22 23 24 29 20 23 20 17 17 14 16 16 15 16 18 18 19 22 22 24 24 24 17 17 17 20 16 14 15 16 17 16 11 4
20 18 19 18 19 21 21 19 20 21 23 20 24 27 28 29 22 20 17 14 17 15 17 18 19 21 21 22 28 25 26 24 24 20 20 20 24 21 22 24 24 25 29 27 19
22 22 22 19 19 22 18 18 22 26 30 30 28 31 23 21 19 21 20 17 17 20 22 21 24 26 23 22 23 21 22 23 22 20 21 25 28 29 30 32 32 33 34 38 40
25 24 24 22 22 18 22 26 25 23 30 34 26 28 23 20 24 24 20 22 22 26 21 23 31 25 23 23 24 23 26 26 23 21 23 27 33 32 35 36 36 36 37 38 36
23 23 21 22 20 23 24 25 21 21 25 32 30 30 25 23 28 27 22 23 26 27 26 28 26 22 21 24 24 26 27 26 27 24 26 31 37 33 28 25 25 29 30 28 29
21 22 21 19 24 26 28 25 20 20 31 31 35 33 27 25 30 23 23 24 26 30 26 31 25 22 24 24 21 26 22 21 24 27 34 25 39 30 29 31 31 32 30 26 25
18 22 22 22 22 27 25 24 18 18 45 26 27 25 25 30 24 27 23 24 28 26 27 30 27 24 27 26 22 26 20 22 24 28 31 30 33 29 25 30 26 24 21 17 18
16 23 23 27 27 26 19 17 18 26 48 28 24 29 31 33 29 24 26 23 22 26 28 29 24 26 27 22 23 16 18 20 22 25 38 31 30 33 24 22 20 19 16 17 19
10 20 24 27 32 20 20 19 26 38 25 31 28 28 30 33 31 29 32 32 32 33 35 30 29 25 21 24 22 22 20 29 33 33 37 26 27 33 20 22 16 17 17 19 20
12 13 22 26 30 22 22 27 38 33 30 20 24 22 30 29 35 33 32 35 36 32 32 36 39 28 24 25 26 23 24 30 37 37 35 27 34 28 20 15 15 16 17 19 22
13 19 21 25 31 27 28 38 41 29 32 24 19 26 29 30 28 31 35 37 36 34 35 34 38 27 24 23 20 29 33 24 30 30 34 30 28 21 14 14 14 16 18 20 20
14 15 23 24 23 30 34 43 41 31 28 29 29 25 29 27 28 31 34 36 36 35 32 32 36 30 27 23 27 29 22 31 31 39 42 36 33 30 21 18 17 16 16 19 21
17 18 17 20 22 29 36 33 32 30 26 30 33 30 29 28 28 30 32 32 33 34 32 29 33 31 25 31 30 31 32 28 27 33 41 43 38 26 16 14 15 16 17 19 21
21 25 21 20 22 23 30 25 27 29 27 26 28 29 30 29 32 34 35 33 28 26 33 30 29 35 32 28 29 32 34 29 32 35 35 36 35 14 11 13 13 15 16 17 20
25 25 24 24 28 27 24 23 26 23 24 25 28 26 27 30 34 32 34 30 27 28 29 29 33 36 34 33 30 32 30 28 29 29 34 38 34 16 15 13 13 14 16 18 21
27 30 27 29 28 28 29 29 27 23 24 24 25 23 23 27 28 30 30 28 26 26 26 24 31 37 41 37 29 35 33 31 29 35 33 34 26 21 19 17 17 16 17 19 22
28 32 29 34 37 31 28 28 31 29 26 23 25 26 26 27 24 26 27 23 22 22 23 25 31 29 30 31 30 33 34 31 33 32 33 32 28 22 23 20 19 17 19 22 24
31 31 30 32 31 33 33 35 32 29 28 30 31 25 25 27 26 24 23 28 26 23 24 26 29 30 32 28 28 33 31 33 34 33 34 29 30 22 19 18 19 20 22 23 25
25 24 28 34 34 37 38 34 33 27 28 28 28 28 31 31 26 23 19 16 19 23 24 24 25 27 31 25 27 38 34 31 32 31 31 36 31 22 20 18 19 21 22 24 25
Wind_Direction
244 243 241 241 240 240 240 242 244 246 249 253 251 260 259 263 262 254 243 246 244 241 235 239 241 239 242 240 242 249 255 264 280 288 3 60 33 36 41 64 35 36 77 77 119
245 245 241 239 239 238 239 241 243 246 247 250 254 254 268 268 260 250 255 252 249 241 239 238 240 240 243 243 245 252 257 265 272 292 3 21 31 59 53 66 25 42 341 82 114
245 244 243 241 238 239 239 240 243 246 248 249 253 254 258 262 260 255 255 254 252 245 244 242 244 243 245 247 249 253 256 267 282 295 324 355 357 12 48 87 97 109 97 109 118
245 244 243 242 240 239 240 241 243 246 250 252 254 257 259 258 252 266 258 253 254 248 246 243 244 243 246 248 253 258 265 268 282 292 310 328 342 6 47 26 336 124 116 121 130
244 243 242 242 242 240 241 242 243 247 250 253 256 258 256 251 253 268 257 253 254 251 247 244 243 247 248 253 257 260 268 275 285 290 305 309 323 336 350 104 310 360 122 135 140
243 242 242 242 243 243 242 243 245 247 251 254 257 258 253 247 264 269 265 255 253 250 248 249 249 253 256 257 259 265 271 277 283 290 298 301 308 319 328 355 349 348 150 153 155
242 242 243 243 241 244 244 244 246 248 251 255 257 257 252 249 264 263 265 257 255 252 249 253 258 255 259 259 266 270 271 276 280 288 295 303 294 308 321 315 317 314 133 163 172
241 241 241 243 242 242 245 246 247 250 252 255 257 255 250 259 260 261 259 261 259 260 256 260 264 262 261 268 270 267 273 271 282 284 293 301 291 308 314 316 314 303 309 242 182
240 240 239 241 241 240 243 246 249 252 253 255 253 251 249 259 251 256 259 256 259 261 263 262 262 260 262 258 263 266 267 270 278 281 289 288 293 308 320 317 308 304 298 301 234
241 241 239 240 238 238 238 244 249 253 252 255 255 249 253 247 252 250 258 254 257 256 258 256 259 255 257 255 257 264 267 272 275 279 282 285 287 294 298 299 296 294 282 283 294
242 240 238 236 235 234 231 239 239 246 240 240 247 247 254 251 253 248 251 250 255 251 250 253 252 249 254 258 269 270 270 273 282 286 282 282 283 286 288 288 287 285 280 269 257
240 236 235 232 232 229 235 239 241 254 244 243 255 250 253 251 247 245 247 245 247 246 252 254 253 256 260 261 263 267 270 273 283 288 285 286 282 286 285 286 283 282 277 274 281
230 229 226 228 230 232 236 239 248 254 252 244 245 245 247 248 248 239 236 247 246 246 247 251 264 258 259 259 260 266 268 273 277 286 289 289 283 288 294 297 294 288 287 290 291
219 218 219 216 231 234 236 238 250 252 250 248 240 247 244 248 249 247 239 246 250 246 248 256 261 254 255 258 261 264 275 279 281 283 278 293 279 289 294 291 290 288 287 293 299
219 206 206 202 234 230 236 232 244 251 241 252 240 247 241 240 246 243 243 249 245 248 249 254 254 257 253 260 264 271 278 280 283 281 283 283 284 288 299 296 296 301 302 307 313
251 206 201 221 238 234 233 226 234 240 240 249 243 235 232 240 245 243 241 252 253 251 257 256 266 259 259 266 265 268 278 285 287 285 276 279 282 286 296 301 299 308 313 314 317
258 226 221 229 232 225 214 219 233 237 250 244 242 236 232 238 240 241 236 238 240 245 249 255 256 263 266 260 265 265 264 273 275 274 275 288 283 283 296 303 304 308 314 316 317
258 246 238 237 237 216 213 217 236 244 239 255 241 234 236 239 243 241 236 239 244 247 251 250 255 254 260 261 259 258 260 267 271 273 278 284 280 289 297 305 314 318 321 324 323
269 252 245 247 238 217 213 226 234 244 238 243 241 238 242 242 247 241 241 242 242 241 248 252 257 262 260 263 252 261 259 270 274 281 279 281 286 294 300 305 314 318 321 324 331
265 262 251 251 248 217 216 234 239 246 244 240 242 243 240 239 245 242 243 249 248 243 251 258 260 265 259 262 261 260 259 265 268 269 271 277 279 280 283 292 304 314 324 327 327
259 253 257 249 249 223 227 236 237 240 245 241 243 245 249 245 245 246 251 254 245 244 246 252 257 263 258 254 250 256 258 267 270 268 271 275 279 287 278 288 301 308 318 326 330
250 244 242 240 240 239 230 235 242 237 246 250 252 250 250 251 250 250 250 256 253 242 236 247 258 258 259 267 263 260 260 255 262 267 269 275 281 286 284 295 306 313 320 327 332
247 247 244 242 239 236 239 240 242 241 244 246 247 252 256 254 257 253 255 259 258 246 243 239 252 257 264 265 264 259 260 257 265 273 266 267 274 266 291 297 306 312 319 324 329
247 244 246 244 245 242 239 240 241 246 248 250 253 255 257 256 261 258 253 254 257 254 251 239 252 250 254 265 259 259 258 257 257 263 268 266 269 258 275 285 295 305 314 322 326
249 247 248 242 240 244 243 245 242 247 252 249 252 251 253 257 259 259 256 253 257 255 253 249 249 254 264 268 265 263 257 253 252 256 261 268 266 250 266 280 290 302 309 315 319
248 249 249 249 244 242 241 243 244 246 245 248 252 252 250 255 256 261 260 255 254 255 254 255 258 258 261 265 267 264 263 259 260 262 264 271 270 271 276 283 289 297 304 311 316
256 264 256 249 245 241 244 248 247 248 253 253 250 251 250 255 260 268 270 269 269 252 255 252 256 258 257 260 266 265 259 260 263 265 263 264 270 273 275 280 289 296 304 310 314